Location: ?????????
(54.7630°N, 39.4991°E)
Time: 17:15:31
(UTC+00:00)

CZ-4C R/B - Pass Details

Date: 14 April 2026
Orbit: 408 x 500 km, 98.0° (Epoch: 16 May)

Event Time Altitude Azimuth Distance (km) Brightness Sun altitude
Rises 22:14:05 0° 13° (NNE) 2,386 8.0 -24.6°
Reaches altitude 10° 22:16:07 10° 11° (N) 1,506 6.6 -24.6°
Enters shadow 22:18:07 34° 360° (N) 703 4.4 -24.5°
